Simultaneous Nadir Overpasses (SNOs) Predictions

Prediction of SNOs between NOAA-20 and AQUA Satellite Orbit:

Table of predicted SNOs for the next 14.0 days since TLE Epoch: 8/7/2020
Index Date (NOAA-20) Time (NOAA-20) Lat,Lon (NOAA-20) SZA (NOAA-20 ) Date (AQUA) Time (AQUA) Lat,Lon (AQUA) SZA (AQUA ) Distance(km) Time Diff (sec)
1 08/08/2020 14:29:44 76.33,-157.41 81.55 08/08/2020 14:29:51 76.34,-157.36 81.54 1.45 7
2 08/08/2020 15:20:07 -77.32, 13.86 99.72 08/08/2020 15:18:57 -77.32, 13.84 99.66 0.62 70
3 08/11/2020 05:56:04 -75.85, 149.40 97.12 08/11/2020 05:57:05 -75.84, 149.33 97.15 2.05 61
4 08/11/2020 06:46:28 76.76, -40.01 81.76 08/11/2020 06:46:12 76.76, -40.04 81.78 0.99 16
5 08/13/2020 22:12:56 -75.92, -94.58 96.44 08/13/2020 22:13:33 -75.93, -94.53 96.48 1.42 37
6 08/13/2020 23:03:20 76.83, 76.04 82.44 08/13/2020 23:02:40 76.84, 76.12 82.46 2.19 40
7 08/16/2020 14:29:38 -76.45, 23.05 96.30 08/16/2020 14:29:52 -76.45, 23.00 96.29 1.33 14
8 08/16/2020 15:20:03 77.29,-166.27 82.64 08/16/2020 15:19:00 77.29,-166.31 82.70 1.03 63
9 08/19/2020 05:56:07 75.42, -31.94 85.78 08/19/2020 05:57:14 75.43, -31.86 85.70 2.25 67
